KINEIS-3A

Last updated on Mon Dec 15 2025 00:02:49 GMT+0000 (Coordinated Universal Time)

1 61223U 24172D 25348.31378997 .00002961 00000+0 47526-3 0 9993 2 61223 98.0262 75.4704 0001437 353.2094 6.9094 14.72398117 65575
UTC large
Height (km)
Speed (km/s)
/
Latitude / Longitude
Inclination (degrees)
Orbital Period (minutes)
Azimuth
Elevation
Range (km)
Doppler Factor

Next 0 passes for location: London (51.5072 / 0.1276)

Sorry there are no passes over London.